Regional Weather Roundup
Issued by NWS Charleston, SC

Current Version | Previous Version | Graphics & Text | Print | Product List | Glossary On
Versions: 1 2 3 4 5 6 7 8 9 10 11 12 13 14 15 16 17 18 19 20 21 22 23 24 25 26 27 28 29 30 31 32 33 34 35 36 37 38 39 40 41 42 43 44 45 46 47 48 49 50
000
ASUS42 KCHS 160525
RWRCHS

REGIONAL WEATHER ROUNDUP
NATIONAL WEATHER SERVICE CHARLESTON SC
100 AM EDT WED APR 16 2014

NOTE: "FAIR" INDICATES FEW OR NO CLOUDS BELOW 12,000 FEET WITH NO
SIGNIFICANT WEATHER AND/OR OBSTRUCTIONS TO VISIBILITY.

NOT ALL STATIONS ARE QUALITY CONTROLLED BY THE NATIONAL
WEATHER SERVICE. USE DATA WITH CAUTION...ESPECIALLY
DEWPOINT OBSERVATIONS.

SCZ027-030-031-034>040-042>050-160600-
...SOUTH CAROLINA...

CITY           SKY/WX    TMP DP  RH WIND       PRES   REMARKS
N CHARLESTON   PTCLDY    52  39  62 N13G23    30.01R
WATERFRONT PRK   N/A     54 N/A N/A N26         N/A
FORT JOHNSON     N/A     54  45  71 N23G32    30.03R
MOUNT PLEASANT FAIR     N/A N/A N/A N10G18    30.01R
JOHNS ISLAND   CLOUDY    54  45  71 N20G29    30.00R
PINOPOLIS        N/A     54  45  71 N22       29.92R
MONCKS CORNER  FAIR      52  45  76 N10G21    30.01R
SUMMERVILLE    CLOUDY    52  39  62 N14       30.03R
BEAUFORT MCAS  MOCLDY    53  41  63 N12       29.99R
BEAUFORT ARPT  CLOUDY    54  45  71 NW13      30.00R
HILTON HEAD IS PTCLDY    52  43  71 NW8       30.02R
GEORGETOWN     NOT AVBL
WALTERBORO     CLOUDY    54  46  76 N9G17     30.03R
ORANGEBURG     PTCLDY    49  35  58 N12G21    30.04R
BARNWELL       FAIR      45  34  65 N13G18    30.07R
AIKEN          FAIR      41  32  70 N6        30.11R
MANNING        FAIR      48  37  66 N9G22     30.05R
KINGSTREE      NOT AVBL
COLUMBIA       PTCLDY    46  31  55 N8        30.07R
SUMTER         CLEAR     45  31  57 N17G26    30.05R
FLORENCE       CLEAR     44  31  60 N15G24    30.04R
MYRTLE BEACH   PTCLDY    46  36  66 N18G25    30.01R
N MYRTLE BEACH PTCLDY    47  34  60 N14G23    29.98R

$$

GAZ063-065-086>088-099>101-113>116-118-119-134-136>141-150-160600-
...GEORGIA...

CITY           SKY/WX    TMP DP  RH WIND       PRES   REMARKS
SAVANNAH ARPT  PTCLDY    50  37  61 NW14      30.02R
HUNTER AAF     CLEAR     49  39  69 NW14      30.00R
FORT STEWART   PTCLDY    47  40  75 NW9       30.02R
STATESBORO     NOT AVBL
SYLVANIA       PTCLDY    48  37  67 N7        30.06R
CLAXTON        FAIR      46  37  71 NW8       30.07R
THOMSON        CLEAR     37  35  92 N3        30.14R
AUGUSTA-BUSH   CLEAR     45  27  49 N21       30.07R
AUGUSTA-DANIEL CLEAR     45  31  58 N12       30.08R
SWAINSBORO     FAIR      41  34  75 NW9       30.09R
VIDALIA        PTCLDY    45  36  70 NW8       30.09R
ALMA           CLEAR     46  33  60 NW13      30.08R
WAYCROSS       NOT AVBL
JESUP          FAIR      45  37  76 NW10G17   30.06R
BRUNSWICK      CLEAR     46  41  81 W7        30.05R
SAINT SIMONS   CLEAR     49  39  68 NW10      30.04R

$$

SCZ027-028-034-036>038-045-046-048>050-GAZ119-141-160600-
...LAKE AND SUPPLEMENTAL COASTAL OBSERVATIONS...

STATION/POSITION TIME  TEMP    WIND        PRES    WAVE   SWELL
                       AIR SEA DIR/SP/G            HT/PER HT/PER/DIR
                 (UTC) (F)     (DEG/KT/KT) (MB)    (FT/S) (FT/S/D)
UPR LAKE MARION  NOT AVBL
WINYAH BAY       0500   50     320/  9     1015.0S
LAKE MURRAY      0500   42     330/  3/  6 1017.9R
ACE BASIN NERRS  0500   54     310/  3     1015.0S
FORT PULASKI     0500   51 62  310/ 18/ 22 1016.2R
SAPELO ISLAND    0500   49     310/ 12     1016.0S

$$

ANZ086-088-AMZ330-350-352-354-374-454-470-160600-
...C-MAN AND BUOY OBSERVATIONS...

STATION/POSITION TIME  TEMP    WIND        PRES    WAVE   SWELL
                       AIR SEA DIR/SP/G            HT/PER HT/PER/DIR
                 (UTC) (F)     (DEG/KT/KT) (MB)    (FT/S) (FT/S/D)
FOLLY BEACH CMAN 0500   53     350/ 14/ 20 1016.1R
BUOY 41004       NOT AVBL
BUOY 41008       0500   54 65  320/ 19/ 23 1015.4R   4/ 4   2/ 60/ 9
5E ST. MARYS GA  0500      65                N/A     4/ 3
FRYING PAN BUOY  0500   52 66  340/ 31/ 35 1011.4R   9/ 5
BUOY 41025       NOT AVBL
CAPE LOOKOUT NC  0500   50     340/ 28/ 34 1012.0R
BUOY 41002       NOT AVBL
BUOY 41010       0500   76 76  180/ 16/ 17 1012.2S   5/ 6   2/ 80/ 8
BUOY 41012       NOT AVBL
ST AUGUSTINE FL  0500   53     320/ 14/ 17 1017.0R


$$



USA.gov is the U.S. government's official web portal to all federal, state and local government web resources and services.